Girona Airport

Jump to: basic info | weather | frequencies | runways | comments

Related pages: nearby airports | nearby navaids | notams | map

Basic information (top)

Codes: GRO LEGE
Location: lon 41.901001, lat 2.760550, elev 468 ft / 143 m msl
Status: medium_airport
Scheduled airline service: yes
Links: Wikipedia Mobile

Weather (top)

Current conditions (rec'd 2014/12/19 02:00Z):

LEGE 190200Z 00000KT 6000 BCFG NSC 07/07 Q1026

Airport forecast (rec'd 2014/12/18 00:27Z):

TAF LEGE 182300Z 1900/1924 VRB04KT 9999 FEW030 TX17/1913Z TN05/1906Z PROB40 
      TEMPO 1900/1909 4000 BR SCT008 PROB30 
      TEMPO 1902/1907 0800 BCFG VV002

Frequencies (top)

Verify before use: may be inaccurate or out of date.

APP: 120.9 MHz (APP)
GND: 121.7 MHz (GND)
TWR: 118.5 MHz (TWR)

Runways (top)

02/20: 7,874 x 148 ft (2,400 x 45 m) — paved — lighted

Latest comments (top)

No comments yet for Girona Airport

More... (top)

See also NOTAMs and nearby airports and navaids, or visit the Girona Airport page at the main OurAirports website..